When you browse on this site, cookies collect data to enhance your experience and personalize the content and advertising you see.
Visit our Privacy Policy to learn more. By continuing to use the site, you agree to this use of cookies and data.
  • En España
  • Lista de países
  • Para 7 días
  • Temperatura del agua
  • El tiempo en el mapa
  • Informadores
  • user-avatar
    Iniciar sesión

    Tiempo cada hora Florence

    Hoy, 23 Febrero, Domingo

    Tiempo Temperatura Precipitaciones Viento Presión Humedad
    00:00 +10°C° 0 mm 1 mps 769 mmHg 74%
    01:00 +9°C° 0 mm 0 mps 769 mmHg 77%
    02:00 +9°C° 0 mm 1 mps 768 mmHg 78%
    03:00 +9°C° 0 mm 1 mps 768 mmHg 78%
    04:00 +9°C° 0 mm 1 mps 767 mmHg 79%
    05:00 +9°C° 0 mm 1 mps 767 mmHg 80%
    06:00 +9°C° 0 mm 1 mps 767 mmHg 81%
    07:00 +8°C° 0 mm 1 mps 767 mmHg 82%
    08:00 +10°C° 0 mm 1 mps 767 mmHg 80%
    09:00 +10°C° 0 mm 2 mps 767 mmHg 79%
    10:00 +13°C° 0 mm 2 mps 767 mmHg 78%
    11:00 +12°C° 0 mm 3 mps 767 mmHg 77%
    12:00 +13°C° 0 mm 3 mps 767 mmHg 75%
    13:00 +14°C° 0 mm 4 mps 766 mmHg 74%
    14:00 +14°C° 0 mm 4 mps 765 mmHg 73%
    15:00 +14°C° 0 mm 4 mps 765 mmHg 73%
    16:00 +14°C° 0 mm 4 mps 764 mmHg 72%
    17:00 +13°C° 0 mm 3 mps 764 mmHg 78%
    18:00 +12°C° 0 mm 3 mps 764 mmHg 83%
    19:00 +12°C° 0 mm 2 mps 764 mmHg 89%
    20:00 +12°C° 0 mm 2 mps 764 mmHg 90%
    21:00 +12°C° 0 mm 2 mps 763 mmHg 90%
    22:00 +10°C° 0 mm 2 mps 763 mmHg 91%
    23:00 +10°C° 0 mm 2 mps 763 mmHg 90%

    Mañana, 24 Febrero, Lunes

    Tiempo Temperatura Precipitaciones Viento Presión Humedad
    00:00 +10°C° 0 mm 2 mps 763 mmHg 90%
    01:00 +10°C° 0 mm 2 mps 763 mmHg 89%
    02:00 +10°C° 0 mm 2 mps 762 mmHg 90%
    03:00 +10°C° 0 mm 1 mps 762 mmHg 91%
    04:00 +10°C° 0 mm 1 mps 761 mmHg 92%
    05:00 +10°C° 0 mm 1 mps 761 mmHg 92%
    06:00 +10°C° 0 mm 1 mps 761 mmHg 92%
    07:00 +10°C° 0 mm 1 mps 761 mmHg 92%
    08:00 +11°C° 0 mm 1 mps 762 mmHg 86%
    09:00 +13°C° 0 mm 1 mps 762 mmHg 80%
    10:00 +14°C° 0 mm 1 mps 762 mmHg 74%
    11:00 +16°C° 0 mm 1 mps 762 mmHg 69%
    12:00 +18°C° 0 mm 1 mps 761 mmHg 64%
    13:00 +17°C° 0 mm 0 mps 761 mmHg 59%
    14:00 +19°C° 0 mm 1 mps 761 mmHg 60%
    15:00 +19°C° 0 mm 1 mps 760 mmHg 60%
    16:00 +19°C° 0 mm 1 mps 760 mmHg 61%
    17:00 +16°C° 0 mm 1 mps 760 mmHg 68%
    18:00 +15°C° 0 mm 1 mps 760 mmHg 75%
    19:00 +12°C° 0 mm 0 mps 760 mmHg 82%
    20:00 +13°C° 0 mm 1 mps 760 mmHg 84%
    21:00 +12°C° 0 mm 1 mps 760 mmHg 86%
    22:00 +12°C° 0 mm 1 mps 759 mmHg 88%
    23:00 +12°C° 0 mm 1 mps 759 mmHg 90%

    Pasado mañana, 25 Febrero, Martes

    Tiempo Temperatura Precipitaciones Viento Presión Humedad
    00:00 +11°C° 0 mm 1 mps 759 mmHg 91%
    01:00 +11°C° 0 mm 1 mps 759 mmHg 93%
    02:00 +11°C° 0 mm 1 mps 758 mmHg 93%
    03:00 +11°C° 0 mm 1 mps 758 mmHg 93%
    04:00 +11°C° 0 mm 1 mps 757 mmHg 93%
    05:00 +10°C° 0 mm 2 mps 757 mmHg 93%
    06:00 +10°C° 0 mm 2 mps 756 mmHg 92%
    07:00 +10°C° 0 mm 2 mps 756 mmHg 92%
    08:00 +12°C° 0 mm 2 mps 756 mmHg 89%
    09:00 +12°C° 0 mm 3 mps 756 mmHg 85%
    10:00 +13°C° 0 mm 3 mps 756 mmHg 82%
    11:00 +14°C° 0.1 mm 3 mps 755 mmHg 77%
    12:00 +15°C° 0.1 mm 4 mps 755 mmHg 72%
    13:00 +15°C° 0.1 mm 4 mps 754 mmHg 67%
    14:00 +15°C° 0.1 mm 4 mps 754 mmHg 68%
    15:00 +15°C° 0.1 mm 5 mps 753 mmHg 69%
    16:00 +15°C° 0.1 mm 5 mps 752 mmHg 71%
    17:00 +14°C° 0 mm 5 mps 752 mmHg 75%
    18:00 +13°C° 0 mm 4 mps 752 mmHg 80%
    19:00 +12°C° 0 mm 4 mps 751 mmHg 84%
    20:00 +11°C° 0 mm 4 mps 751 mmHg 86%
    21:00 +11°C° 0 mm 3 mps 750 mmHg 87%
    22:00 +11°C° 0 mm 3 mps 750 mmHg 88%
    23:00 +11°C° 0.1 mm 4 mps 749 mmHg 87%

    26 Febrero, Miércoles

    Tiempo Temperatura Precipitaciones Viento Presión Humedad
    00:00 +10°C° 0.1 mm 5 mps 748 mmHg 86%
    01:00 +12°C° 0.1 mm 5 mps 747 mmHg 86%
    02:00 +10°C° 0.1 mm 5 mps 746 mmHg 84%
    03:00 +10°C° 0.1 mm 5 mps 746 mmHg 82%
    04:00 +10°C° 0.1 mm 5 mps 745 mmHg 81%
    05:00 +10°C° 0 mm 5 mps 745 mmHg 78%
    06:00 +9°C° 0 mm 5 mps 744 mmHg 75%
    07:00 +9°C° 0 mm 5 mps 744 mmHg 73%
    08:00 +10°C° 0 mm 5 mps 744 mmHg 71%
    09:00 +10°C° 0 mm 6 mps 743 mmHg 68%
    10:00 +11°C° 0 mm 7 mps 743 mmHg 66%
    11:00 +11°C° 0 mm 8 mps 742 mmHg 60%
    12:00 +11°C° 0 mm 9 mps 741 mmHg 54%
    13:00 +12°C° 0 mm 11 mps 741 mmHg 48%
    14:00 +10°C° 0.5 mm 9 mps 740 mmHg 49%
    15:00 +9°C° 0.5 mm 7 mps 740 mmHg 51%
    16:00 +8°C° 0.5 mm 5 mps 740 mmHg 52%
    17:00 +7°C° 0 mm 5 mps 741 mmHg 50%
    18:00 +6°C° 0 mm 5 mps 741 mmHg 47%
    19:00 +5°C° 0 mm 4 mps 742 mmHg 45%
    20:00 +5°C° 1 mm 4 mps 743 mmHg 55%
    21:00 +4°C° 1 mm 3 mps 745 mmHg 65%
    22:00 +3°C° 1 mm 3 mps 746 mmHg 75%
    23:00 +4°C° 0 mm 2 mps 747 mmHg 75%

    27 Febrero, Jueves

    Tiempo Temperatura Precipitaciones Viento Presión Humedad
    00:00 +4°C° 0 mm 1 mps 748 mmHg 75%
    01:00 +4°C° 0 mm 1 mps 749 mmHg 75%
    02:00 +4°C° 0 mm 1 mps 749 mmHg 73%
    03:00 +4°C° 0 mm 1 mps 750 mmHg 72%
    04:00 +4°C° 0 mm 1 mps 751 mmHg 70%
    05:00 +3°C° 0 mm 1 mps 752 mmHg 68%
    06:00 +3°C° 0 mm 1 mps 753 mmHg 67%
    07:00 +3°C° 0 mm 1 mps 754 mmHg 65%
    08:00 +5°C° 0 mm 1 mps 754 mmHg 59%
    09:00 +7°C° 0 mm 1 mps 755 mmHg 52%
    10:00 +9°C° 0 mm 1 mps 756 mmHg 46%
    11:00 +11°C° 0 mm 1 mps 757 mmHg 41%
    12:00 +12°C° 0 mm 1 mps 757 mmHg 36%
    13:00 +13°C° 0 mm 1 mps 757 mmHg 31%
    14:00 +13°C° 0 mm 1 mps 757 mmHg 32%
    15:00 +13°C° 0 mm 1 mps 757 mmHg 32%
    16:00 +13°C° 0 mm 1 mps 757 mmHg 32%
    17:00 +11°C° 0 mm 1 mps 758 mmHg 37%
    18:00 +9°C° 0 mm 1 mps 758 mmHg 42%
    19:00 +7°C° 0 mm 1 mps 758 mmHg 48%
    20:00 +7°C° 0 mm 1 mps 758 mmHg 49%
    21:00 +6°C° 0 mm 1 mps 759 mmHg 50%
    22:00 +6°C° 0 mm 1 mps 759 mmHg 51%
    23:00 +6°C° 0 mm 1 mps 759 mmHg 52%

    28 Febrero, Viernes

    Tiempo Temperatura Precipitaciones Viento Presión Humedad
    00:00 +5°C° 0 mm 1 mps 759 mmHg 53%
    01:00 +5°C° 0 mm 1 mps 759 mmHg 54%
    02:00 +5°C° 0 mm 1 mps 759 mmHg 55%
    03:00 +5°C° 0 mm 1 mps 758 mmHg 56%
    04:00 +5°C° 0 mm 1 mps 758 mmHg 57%
    05:00 +6°C° 0 mm 1 mps 758 mmHg 58%
    06:00 +6°C° 0 mm 1 mps 758 mmHg 59%
    07:00 +7°C° 0 mm 1 mps 758 mmHg 60%
    08:00 +8°C° 0 mm 1 mps 759 mmHg 59%
    09:00 +8°C° 0 mm 1 mps 759 mmHg 58%
    10:00 +9°C° 0 mm 1 mps 759 mmHg 57%
    11:00 +10°C° 0 mm 1 mps 759 mmHg 56%
    12:00 +10°C° 0 mm 2 mps 760 mmHg 54%
    13:00 +10°C° 0 mm 2 mps 760 mmHg 53%
    14:00 +12°C° 0 mm 2 mps 759 mmHg 55%
    15:00 +12°C° 0 mm 2 mps 759 mmHg 57%
    16:00 +12°C° 0 mm 2 mps 759 mmHg 59%
    17:00 +11°C° 0 mm 1 mps 759 mmHg 63%
    18:00 +10°C° 0 mm 1 mps 759 mmHg 67%
    19:00 +9°C° 0 mm 1 mps 759 mmHg 71%
    20:00 +10°C° 0 mm 1 mps 759 mmHg 71%
    21:00 +10°C° 0 mm 1 mps 759 mmHg 71%
    22:00 +9°C° 0 mm 2 mps 759 mmHg 71%
    23:00 +9°C° 0 mm 2 mps 758 mmHg 76%
    Mostrar más